Date String (YYYY-MM-DD hh:mm:ss) UTC,Instrument flags,Ambient pressure (hPa),Sample flow (lpm),Bypass flow (lpm),Sample temperature (°C),Ambient temperature (°C),ASC tube jacket temperature (°C),LED temperature (°C),Box temperature (°C),Sample RH (%),Span deviation,Mass concentration (μg/m³),Mass concentration (μg/m³),Mass concentration (μg/m³)
DateTimeUTC,F1_M11,P_M11,Q1_M11,Q2_M11,T1_M11,T2_M11,T3_M11,T4_M11,T5_M11,U1_M11,ZSPAN_M11,X0_M11,X2_M11,X1_M11
2022-01-16 15:00:00,,0826.2,4.99,0.00,22.8,22.1,00.0,31.7,24.6,04.8,0000.0,0002.69,0001.68,0001.52
2022-01-16 15:01:00,,0826.2,5.00,0.00,22.8,22.1,00.0,31.7,24.6,04.7,0000.0,0002.66,0001.67,0001.51
2022-01-16 15:02:00,,0826.1,5.00,0.00,22.8,22.1,00.0,31.7,24.6,04.6,0000.0,0002.61,0001.66,0001.51
2022-01-16 15:03:00,,0826.1,5.00,0.00,22.8,22.1,00.0,31.7,24.6,04.6,0000.0,0002.60,0001.66,0001.52
2022-01-16 15:04:00,,0826.1,5.01,0.00,22.8,22.1,00.0,31.7,24.6,04.7,0000.0,0002.22,0001.68,0001.51
2022-01-16 15:05:00,,0826.1,4.98,0.00,22.8,22.1,00.0,31.7,24.6,04.7,0000.0,0002.18,0001.68,0001.51
2022-01-16 15:06:00,,0826.0,4.99,0.00,22.8,22.1,00.0,31.7,24.6,04.5,0000.0,0002.12,0001.66,0001.51
2022-01-16 15:07:00,,0826.0,5.01,0.00,22.8,22.1,00.0,31.8,24.6,04.6,0000.0,0002.14,0001.66,0001.50
2022-01-16 15:08:00,,0826.0,5.00,0.00,22.8,22.1,00.0,31.8,24.6,04.7,0000.0,0002.16,0001.67,0001.50
2022-01-16 15:09:00,,0826.1,5.00,0.00,22.9,22.2,00.0,31.8,24.7,04.6,0000.0,0002.16,0001.69,0001.51
2022-01-16 15:10:00,,0826.1,5.00,0.00,22.9,22.2,00.0,31.8,24.7,04.7,0000.0,0002.12,0001.68,0001.51
2022-01-16 15:11:00,,0826.1,4.99,0.00,22.9,22.2,00.0,31.8,24.7,04.6,0000.0,0002.11,0001.67,0001.50
2022-01-16 15:12:00,,0826.0,5.00,0.00,22.9,22.2,00.0,31.8,24.7,04.7,0000.0,0002.13,0001.69,0001.51
2022-01-16 15:13:00,,0826.0,5.00,0.00,22.9,22.2,00.0,31.8,24.7,04.7,0000.0,0002.18,0001.70,0001.51
2022-01-16 15:14:00,,0826.0,5.01,0.00,22.9,22.2,00.0,31.8,24.7,04.7,0000.0,0002.31,0001.74,0001.52
2022-01-16 15:15:00,,0826.0,5.00,0.00,22.9,22.2,00.0,31.8,24.7,05.0,0000.0,0002.38,0001.76,0001.54
2022-01-16 15:16:00,,0826.2,5.00,0.00,22.9,22.2,00.0,31.8,24.7,04.7,0000.0,0002.45,0001.76,0001.54
2022-01-16 15:17:00,,0826.2,4.99,0.00,22.9,22.2,00.0,31.8,24.7,04.6,0000.0,0002.58,0001.80,0001.54
2022-01-16 15:18:00,,0826.1,5.00,0.00,22.9,22.2,00.0,31.8,24.7,04.6,0000.0,0002.70,0001.84,0001.55
2022-01-16 15:19:00,,0826.1,5.01,0.00,22.9,22.2,00.0,31.8,24.7,04.6,0000.0,0002.71,0001.85,0001.56
2022-01-16 15:20:00,,0826.2,5.00,0.00,22.9,22.2,00.0,31.8,24.7,04.6,0000.0,0002.77,0001.87,0001.57
2022-01-16 15:21:00,,0826.1,5.01,0.00,22.9,22.2,00.0,31.8,24.7,04.6,0000.0,0002.94,0001.92,0001.56
2022-01-16 15:22:00,,0826.1,4.99,0.00,22.9,22.2,00.0,31.8,24.7,04.6,0000.0,0002.86,0001.91,0001.56
2022-01-16 15:23:00,,0826.1,5.00,0.00,22.9,22.2,00.0,31.8,24.7,04.6,0000.0,0002.86,0001.92,0001.57
2022-01-16 15:24:00,,0826.2,5.02,0.00,22.9,22.2,00.0,31.9,24.7,04.5,0000.0,0002.84,0001.91,0001.58
2022-01-16 15:25:00,,0826.0,4.98,0.00,22.9,22.2,00.0,31.9,24.7,04.4,0000.0,0002.73,0001.89,0001.57
2022-01-16 15:26:00,,0826.1,5.01,0.00,22.9,22.2,00.0,31.9,24.7,04.5,0000.0,0002.75,0001.91,0001.57
2022-01-16 15:27:00,,0826.1,4.98,0.00,22.9,22.3,00.0,31.9,24.8,04.5,0000.0,0002.75,0001.91,0001.58
2022-01-16 15:28:00,,0826.1,5.02,0.00,22.9,22.3,00.0,31.9,24.7,04.5,0000.0,0002.71,0001.92,0001.61
2022-01-16 15:29:00,,0826.1,4.98,0.00,22.9,22.3,00.0,31.9,24.8,04.6,0000.0,0002.65,0001.91,0001.62
2022-01-16 15:30:00,,0826.1,5.01,0.00,22.9,22.3,00.0,31.9,24.7,04.6,0000.0,0002.69,0001.93,0001.64
2022-01-16 15:31:00,,0826.1,5.00,0.00,23.0,22.3,00.0,31.9,24.8,04.7,0000.0,0002.62,0001.90,0001.65
2022-01-16 15:32:00,,0826.2,4.99,0.00,23.0,22.3,00.0,31.9,24.8,04.6,0000.0,0002.45,0001.89,0001.68
2022-01-16 15:33:00,,0826.2,5.02,0.00,23.0,22.3,00.0,31.9,24.8,04.7,0000.0,0002.48,0001.90,0001.69
2022-01-16 15:34:00,,0826.3,4.99,0.00,23.0,22.3,00.0,31.9,24.8,04.7,0000.0,0003.21,0001.94,0001.71
2022-01-16 15:35:00,,0826.2,5.01,0.00,23.0,22.3,00.0,31.9,24.8,04.6,0000.0,0003.24,0001.96,0001.72
2022-01-16 15:36:00,,0826.3,4.99,0.00,23.0,22.3,00.0,31.9,24.8,04.6,0000.0,0003.26,0001.97,0001.73
2022-01-16 15:37:00,,0826.4,5.00,0.00,23.0,22.3,00.0,31.9,24.8,04.6,0000.0,0003.32,0001.95,0001.74
2022-01-16 15:38:00,,0826.4,5.01,0.00,23.0,22.3,00.0,31.9,24.8,04.7,0000.0,0003.26,0001.95,0001.75
2022-01-16 15:39:00,,0826.3,4.98,0.00,23.0,22.3,00.0,31.9,24.8,04.8,0000.0,0003.23,0001.94,0001.74
2022-01-16 15:40:00,,0826.3,5.01,0.00,23.0,22.4,00.0,31.9,24.9,04.8,0000.0,0003.18,0001.93,0001.74
2022-01-16 15:41:00,,0826.3,5.00,0.00,23.0,22.3,00.0,32.0,24.9,04.8,0000.0,0003.19,0001.94,0001.74
2022-01-16 15:42:00,,0826.3,5.00,0.00,23.1,22.3,00.0,32.0,24.9,04.7,0000.0,0003.19,0001.94,0001.74
2022-01-16 15:43:00,,0826.3,5.00,0.00,23.0,22.3,00.0,32.0,24.9,04.6,0000.0,0003.19,0001.94,0001.74
2022-01-16 15:44:00,,0826.4,5.01,0.00,23.1,22.4,00.0,32.0,24.8,04.6,0000.0,0003.14,0001.94,0001.75
2022-01-16 15:45:00,,0826.5,4.99,0.00,23.1,22.4,00.0,32.0,24.9,04.8,0000.0,0002.61,0001.93,0001.74
2022-01-16 15:46:00,,0826.5,5.00,0.00,23.1,22.4,00.0,32.0,24.9,04.7,0000.0,0002.51,0001.90,0001.73
2022-01-16 15:47:00,,0826.5,5.01,0.00,23.1,22.4,00.0,32.0,24.9,04.6,0000.0,0002.50,0001.90,0001.74
2022-01-16 15:48:00,,0826.5,4.99,0.00,23.1,22.4,00.0,32.0,24.9,04.7,0000.0,0002.37,0001.88,0001.73
2022-01-16 15:49:00,,0826.5,5.01,0.00,23.1,22.4,00.0,32.0,24.9,04.9,0000.0,0002.33,0001.86,0001.72
2022-01-16 15:50:00,,0826.5,4.99,0.00,23.1,22.4,00.0,32.0,24.9,04.9,0000.0,0002.35,0001.86,0001.73
2022-01-16 15:51:00,,0826.5,5.02,0.00,23.1,22.4,00.0,32.0,24.9,04.8,0000.0,0002.33,0001.85,0001.73
2022-01-16 15:52:00,,0826.5,5.00,0.00,23.1,22.4,00.0,32.0,24.9,04.8,0000.0,0002.27,0001.83,0001.71
2022-01-16 15:53:00,,0826.4,4.99,0.00,23.1,22.4,00.0,32.0,24.9,04.7,0000.0,0002.31,0001.84,0001.71
2022-01-16 15:54:00,,0826.5,5.01,0.00,23.1,22.4,00.0,32.0,24.9,04.7,0000.0,0002.42,0001.88,0001.71
2022-01-16 15:55:00,,0826.5,4.98,0.00,23.1,22.4,00.0,32.0,24.9,04.7,0000.0,0002.47,0001.88,0001.70
2022-01-16 15:56:00,,0826.5,5.01,0.00,23.1,22.4,00.0,32.1,24.9,04.7,0000.0,0002.38,0001.86,0001.69
2022-01-16 15:57:00,,0826.5,5.00,0.00,23.1,22.4,00.0,32.1,24.9,04.6,0000.0,0002.39,0001.88,0001.69
2022-01-16 15:58:00,,0826.5,4.99,0.00,23.1,22.4,00.0,32.1,24.9,04.5,0000.0,0002.39,0001.87,0001.67
2022-01-16 15:59:00,,0826.5,5.02,0.00,23.1,22.4,00.0,32.1,24.9,04.5,0000.0,0002.42,0001.89,0001.68
